TimeCST,TemperatureF,Dew PointF,Humidity,Sea Level PressureIn,VisibilityMPH,Wind Direction,Wind SpeedMPH,Gust SpeedMPH,PrecipitationIn,Events,Conditions,WindDirDegrees,DateUTC
12:00 AM,75.2,71.6,89,29.86,6.2,SSE,4.6,-,N/A,,Partly Cloudy,150,2012-11-06 06:00:00
1:00 AM,75.2,71.6,89,29.83,6.2,South,4.6,-,N/A,,Partly Cloudy,180,2012-11-06 07:00:00
2:00 AM,75.2,71.6,89,29.83,6.2,Calm,Calm,-,N/A,,Partly Cloudy,0,2012-11-06 08:00:00
3:00 AM,75.2,71.6,89,29.83,6.2,Calm,Calm,-,N/A,,Partly Cloudy,0,2012-11-06 09:00:00
8:00 AM,82.4,71.6,70,29.86,6.2,SE,4.6,-,N/A,,Partly Cloudy,130,2012-11-06 14:00:00
9:00 AM,84.2,71.6,66,29.89,6.2,ESE,9.2,-,N/A,,Scattered Clouds,110,2012-11-06 15:00:00
10:00 AM,86.0,71.6,62,29.86,6.2,East,9.2,-,N/A,,Scattered Clouds,100,2012-11-06 16:00:00
11:00 AM,87.8,71.6,58,29.83,6.2,ENE,4.6,-,N/A,,Scattered Clouds,70,2012-11-06 17:00:00
12:00 PM,89.6,73.4,59,29.83,6.2,East,6.9,-,N/A,,Scattered Clouds,80,2012-11-06 18:00:00
1:00 PM,91.4,69.8,49,29.80,6.2,East,9.2,-,N/A,,Scattered Clouds,90,2012-11-06 19:00:00
2:00 PM,89.6,71.6,55,29.77,6.2,East,6.9,-,N/A,,Scattered Clouds,80,2012-11-06 20:00:00
3:00 PM,89.6,73.4,59,29.74,6.2,ENE,4.6,-,N/A,,Scattered Clouds,60,2012-11-06 21:00:00
4:00 PM,89.6,69.8,52,29.77,6.2,ENE,4.6,-,N/A,,Scattered Clouds,70,2012-11-06 22:00:00
5:00 PM,87.8,71.6,58,29.77,6.2,East,4.6,-,N/A,,Partly Cloudy,80,2012-11-06 23:00:00
6:00 PM,84.2,69.8,62,29.80,6.2,ENE,6.9,-,N/A,,Scattered Clouds,70,2012-11-07 00:00:00
7:00 PM,82.4,69.8,66,29.83,6.2,East,6.9,-,N/A,,Partly Cloudy,90,2012-11-07 01:00:00
8:00 PM,80.6,69.8,70,29.86,6.2,East,6.9,-,N/A,,Partly Cloudy,90,2012-11-07 02:00:00
9:00 PM,78.8,71.6,78,29.86,6.2,East,4.6,-,N/A,,Partly Cloudy,100,2012-11-07 03:00:00
10:00 PM,80.6,71.6,74,29.89,6.2,ESE,6.9,-,N/A,,Scattered Clouds,120,2012-11-07 04:00:00
11:00 PM,80.6,71.6,74,29.89,6.2,East,6.9,-,N/A,,Scattered Clouds,90,2012-11-07 05:00:00